Regional Weather Roundup
Issued by NWS

Home | Current Version | Previous Version | Graphics & Text | Print | Product List | Glossary On
Versions: 1 2 3 4 5 6 7 8 9 10 11 12 13 14 15 16 17 18 19 20 21 22 23 24 25 26 27 28 29 30 31 32 33 34 35 36 37 38 39 40 41 42 43 44 45 46 47 48 49 50
000
ASUS45 KABQ 252001
RWRNM
WEATHER ROUNDUP FOR NEW MEXICO
NATIONAL WEATHER SERVICE ALBUQUERQUE NM
200 PM MDT SAT OCT 25 2014

NOTE: "FAIR" MEANS FEW OR NO CLOUDS BELOW 12,000 FEET AGL WITH NO
       SIGNIFICANT WEATHER OR OBSTRUCTIONS TO VISION.

      THIS PRODUCT IS RELEASED AS TWO VERSIONS.  ONE VERSION NEAR
      THE TOP OF THE HOUR CONTAINING PRELIMINARY DATA FROM ALBUQUERQUE
      AND OTHER STATIONS.  A FINAL VERSION WITH ADDITIONAL DATA IS
      ISSUED ABOUT 10 MINUTES AFTER THE HOUR.

NMZ501-503-504-510>518-252100-
NORTHWEST PLATEAU/NORTHCENTRAL MOUNTAINS

CITY           SKY/WX    TMP DP  RH WIND       PRES   REMARKS
FARMINGTON     SUNNY     74  26  16 S3        30.24F
LOS ALAMOS     SUNNY     69  20  15 SE5       30.34F
SANTA FE       SUNNY     74  25  16 SW8       30.28F
TAOS           SUNNY     72  19  14 SW6       30.32F
ANGEL FIRE     FAIR      71   3   7 W16       30.37F

$$
NMZ402-403-502-505>509-252100-
WESTCENTRAL MOUNTAINS/SOUTHWEST MOUNTAINS

CITY           SKY/WX    TMP DP  RH WIND       PRES   REMARKS
GALLUP         SUNNY     73  36  25 SW13G23   30.32F
GRANTS         SUNNY     75  28  17 N3        30.32F
SILVER CITY    SUNNY     77  41  27 CALM      30.29F

$$
NMZ407-409-411-412-252100-
SOUTHERN DESERTS

CITY           SKY/WX    TMP DP  RH WIND       PRES   REMARKS
LORDSBURG      FAIR      81  45  28 CALM      30.20F
DEMING         SUNNY     80  43  26 CALM      30.21F
LAS CRUCES     SUNNY     80  42  25 CALM      30.22F
T OR C         SUNNY     78  42  27 S9        30.22F

$$
NMZ519>523-252100-
CENTRAL VALLEYS/CENTRAL HIGHLANDS

CITY           SKY/WX    TMP DP  RH WIND       PRES   REMARKS
ALBUQUERQUE    SUNNY     74  37  26 VRB3      30.25F
DOUBLE EAGLE   SUNNY     73  32  21 VRB5      30.28F
MORIARTY ARPT  FAIR      80  27  14 W6        30.28F
CLINES CORNERS SUNNY     75  28  17 NW17G24   30.30F
BELEN          FAIR      76  35  22 E5        30.24F
SOCORRO        FAIR      76  41  28 CALM      30.23F

$$
NMZ524>526-539-540-252100-
SOUTHCENTRAL MOUNTAINS

CITY           SKY/WX    TMP DP  RH WIND       PRES   REMARKS
RUIDOSO        SUNNY     73  39  29 N6        30.34F

$$
NMZ527>531-252100-
NORTHEAST HIGHLANDS/NORTHEAST PLAINS

CITY           SKY/WX    TMP DP  RH WIND       PRES   REMARKS
LAS VEGAS      SUNNY     80  14   8 S18G24    30.25F
RATON          SUNNY     81  18   9 VRB7      30.19F
CLAYTON        SUNNY     85  29  13 S20       30.13F

$$
NMZ532>537-252100-
EASTCENTRAL PLAINS

CITY           SKY/WX    TMP DP  RH WIND       PRES   REMARKS
TUCUMCARI      SUNNY     89  37  16 SW18G28   30.10F
CANNON AFB     NOT AVBL
CLOVIS AIRPORT SUNNY     84  43  23 SW18      30.17F

$$
NMZ028-029-538-252100-
SOUTHEAST PLAINS

CITY           SKY/WX    TMP DP  RH WIND       PRES   REMARKS
ROSWELL        SUNNY     80  51  36 S9        30.14F
CARLSBAD       SUNNY     80  54  40 VRB5      30.13F
HOBBS          SUNNY     82  46  28 S13       30.17F


$$



USA.gov is the U.S. government's official web portal to all federal, state and local government web resources and services.